Time,TemperatureF,DewpointF,PressureIn,WindDirection,WindDirectionDegrees,WindSpeedMPH,WindSpeedGustMPH,Humidity,HourlyPrecipIn,Conditions,Clouds,dailyrainin,SoftwareType,DateUTC
2013-03-19 00:03:00,46.0,44.0,29.84,SSE,159,0.0,0.0,93,0.00,,,0.21,,2013-03-19 04:03:00,
2013-03-19 00:13:00,46.0,44.0,29.84,SSE,159,0.0,0.0,93,0.00,,,0.21,,2013-03-19 04:13:00,
2013-03-19 00:23:00,46.0,44.0,29.84,SSE,159,0.0,0.0,93,0.00,,,0.21,,2013-03-19 04:23:00,
2013-03-19 00:34:00,45.0,43.0,29.85,SSE,159,0.0,0.0,93,0.00,,,0.21,,2013-03-19 04:34:00,
2013-03-19 00:43:00,45.0,43.0,29.85,SSE,159,0.0,0.0,93,0.00,,,0.21,,2013-03-19 04:43:00,
2013-03-19 00:52:00,45.0,43.0,29.85,SSE,159,0.0,0.0,92,0.00,,,0.21,,2013-03-19 04:52:00,
2013-03-19 01:02:00,45.0,43.0,29.85,SSE,159,0.0,0.0,93,0.00,,,0.21,,2013-03-19 05:02:00,
2013-03-19 01:12:00,45.0,43.0,29.85,SSE,159,0.0,0.0,93,0.00,,,0.21,,2013-03-19 05:12:00,
2013-03-19 01:22:00,45.0,43.0,29.85,SSE,159,0.0,0.0,93,0.00,,,0.21,,2013-03-19 05:22:00,
2013-03-19 01:32:00,45.0,43.0,29.86,SSE,159,0.0,0.0,93,0.00,,,0.21,,2013-03-19 05:32:00,
2013-03-19 01:43:00,45.0,43.0,29.86,SSE,159,0.0,0.0,93,0.00,,,0.21,,2013-03-19 05:43:00,
2013-03-19 01:52:00,45.0,43.0,29.86,SSE,159,0.0,0.0,93,0.00,,,0.21,,2013-03-19 05:52:00,
2013-03-19 02:02:00,45.0,43.0,29.86,SSE,159,0.0,0.0,93,0.00,,,0.21,,2013-03-19 06:02:00,
2013-03-19 02:12:00,45.0,43.0,29.86,SSE,159,0.0,0.0,93,0.00,,,0.21,,2013-03-19 06:12:00,
2013-03-19 02:22:00,45.0,43.0,29.86,SSE,159,0.0,0.0,93,0.00,,,0.21,,2013-03-19 06:22:00,
2013-03-19 02:32:00,44.0,42.0,29.87,SSE,159,0.0,0.0,94,0.00,,,0.21,,2013-03-19 06:32:00,
2013-03-19 02:42:00,44.0,42.0,29.87,SSE,159,0.0,0.0,94,0.00,,,0.21,,2013-03-19 06:42:00,
2013-03-19 02:52:00,44.0,42.0,29.86,SSE,159,0.0,0.0,94,0.00,,,0.21,,2013-03-19 06:52:00,
2013-03-19 03:02:00,44.0,42.0,29.87,SSE,159,0.0,0.0,94,0.00,,,0.21,,2013-03-19 07:02:00,
2013-03-19 03:12:00,44.0,42.0,29.87,SSE,159,0.0,0.0,94,0.00,,,0.21,,2013-03-19 07:12:00,
2013-03-19 03:22:00,44.0,42.0,29.87,SSE,159,0.0,0.0,94,0.00,,,0.21,,2013-03-19 07:22:00,
2013-03-19 03:32:00,44.0,42.0,29.87,SSE,159,0.0,0.0,94,0.00,,,0.21,,2013-03-19 07:32:00,
2013-03-19 03:42:00,44.0,42.0,29.87,SSE,159,0.0,0.0,94,0.00,,,0.21,,2013-03-19 07:42:00,
2013-03-19 03:52:00,44.0,42.0,29.87,SSE,159,0.0,0.0,94,0.00,,,0.21,,2013-03-19 07:52:00,
2013-03-19 04:03:00,44.0,42.0,29.87,SSE,159,0.0,0.0,94,0.00,,,0.21,,2013-03-19 08:03:00,
2013-03-19 04:12:00,44.0,42.0,29.87,SSE,159,0.0,0.0,94,0.00,,,0.21,,2013-03-19 08:12:00,
2013-03-19 04:22:00,45.0,43.0,29.87,SSE,159,0.0,0.0,94,0.00,,,0.21,,2013-03-19 08:22:00,
2013-03-19 04:32:00,45.0,43.0,29.87,SSE,159,0.0,0.0,94,0.00,,,0.21,,2013-03-19 08:32:00,
2013-03-19 04:42:00,45.0,43.0,29.87,SSE,159,0.0,0.0,94,0.00,,,0.21,,2013-03-19 08:42:00,
2013-03-19 04:52:00,45.0,43.0,29.87,SSE,159,0.0,0.0,94,0.00,,,0.21,,2013-03-19 08:52:00,
2013-03-19 05:03:00,45.0,43.0,29.87,SSE,159,0.0,0.0,94,0.00,,,0.21,,2013-03-19 09:03:00,
2013-03-19 05:12:00,45.0,43.0,29.87,SSE,159,0.0,0.0,94,0.00,,,0.21,,2013-03-19 09:12:00,
2013-03-19 05:22:00,45.0,43.0,29.87,SSE,159,0.0,0.0,94,0.00,,,0.21,,2013-03-19 09:22:00,
2013-03-19 05:33:00,45.0,43.0,29.89,SSE,159,0.0,0.0,94,0.00,,,0.21,,2013-03-19 09:33:00,
2013-03-19 05:43:00,45.0,43.0,29.89,SSE,159,0.0,0.0,94,0.00,,,0.21,,2013-03-19 09:43:00,
2013-03-19 05:53:00,45.0,43.0,29.89,SSE,159,0.0,0.0,94,0.00,,,0.21,,2013-03-19 09:53:00,
2013-03-19 06:04:00,44.0,42.0,29.90,SSE,159,0.0,0.0,93,0.00,,,0.21,,2013-03-19 10:04:00,
2013-03-19 06:13:00,44.0,42.0,29.90,SSE,159,0.0,0.0,93,0.00,,,0.21,,2013-03-19 10:13:00,
2013-03-19 06:23:00,43.0,41.0,29.90,SSE,159,0.0,0.0,93,0.00,,,0.21,,2013-03-19 10:23:00,
2013-03-19 06:33:00,42.0,39.0,29.92,SSE,159,0.0,0.0,90,0.00,,,0.21,,2013-03-19 10:33:00,
2013-03-19 06:42:00,42.0,39.0,29.92,SSE,159,0.0,0.0,90,0.00,,,0.21,,2013-03-19 10:42:00,
2013-03-19 06:52:00,42.0,39.0,29.93,SSE,159,0.0,0.0,90,0.00,,,0.21,,2013-03-19 10:52:00,
2013-03-19 07:03:00,42.0,39.0,29.95,SSE,159,0.0,0.0,89,0.00,,,0.21,,2013-03-19 11:03:00,
2013-03-19 07:12:00,42.0,39.0,29.95,SSE,159,0.0,0.0,89,0.00,,,0.21,,2013-03-19 11:12:00,
2013-03-19 07:22:00,41.0,38.0,29.95,SSE,159,0.0,0.0,89,0.00,,,0.21,,2013-03-19 11:22:00,
2013-03-19 07:33:00,40.0,36.0,29.96,SSE,159,0.0,0.0,86,0.00,,,0.21,,2013-03-19 11:33:00,
2013-03-19 07:43:00,40.0,36.0,29.96,SSE,159,0.0,0.0,86,0.00,,,0.21,,2013-03-19 11:43:00,
2013-03-19 07:52:00,39.0,35.0,29.97,SSE,159,0.0,0.0,85,0.00,,,0.21,,2013-03-19 11:52:00,
2013-03-19 08:02:00,38.0,34.0,29.98,SSE,159,0.0,0.0,84,0.00,,,0.21,,2013-03-19 12:02:00,
2013-03-19 08:12:00,38.0,34.0,29.98,SSE,159,0.0,0.0,84,0.00,,,0.21,,2013-03-19 12:12:00,
2013-03-19 08:22:00,38.0,34.0,29.98,SSE,159,0.0,0.0,84,0.00,,,0.21,,2013-03-19 12:22:00,
2013-03-19 08:33:00,38.0,34.0,29.98,SSE,159,0.0,0.0,87,0.00,,,0.21,,2013-03-19 12:33:00,
2013-03-19 08:42:00,38.0,34.0,29.98,SSE,159,0.0,0.0,87,0.00,,,0.21,,2013-03-19 12:42:00,
2013-03-19 08:52:00,38.0,34.0,29.98,SSE,159,0.0,0.0,84,0.00,,,0.21,,2013-03-19 12:52:00,
2013-03-19 09:02:00,39.0,34.0,29.98,NNW,344,0.0,0.0,81,0.00,,,0.21,,2013-03-19 13:02:00,
2013-03-19 09:12:00,39.0,34.0,29.98,NNW,344,0.0,0.0,81,0.00,,,0.21,,2013-03-19 13:12:00,
2013-03-19 09:22:00,40.0,35.0,29.99,SW,224,0.0,0.0,82,0.00,,,0.21,,2013-03-19 13:22:00,
2013-03-19 09:33:00,41.0,35.0,29.98,ESE,111,0.0,2.0,80,0.00,,,0.21,,2013-03-19 13:33:00,
2013-03-19 09:42:00,41.0,35.0,29.98,ESE,111,0.0,2.0,80,0.00,,,0.21,,2013-03-19 13:42:00,
2013-03-19 09:52:00,41.0,34.0,29.98,SSE,147,0.0,0.0,76,0.00,,,0.21,,2013-03-19 13:52:00,
2013-03-19 10:02:00,42.0,35.0,29.97,SE,134,0.0,0.0,77,0.00,,,0.21,,2013-03-19 14:02:00,
2013-03-19 10:12:00,42.0,35.0,29.97,SE,134,0.0,0.0,77,0.00,,,0.21,,2013-03-19 14:12:00,
2013-03-19 10:22:00,41.0,34.0,29.98,ESE,119,0.0,0.0,76,0.00,,,0.21,,2013-03-19 14:22:00,
2013-03-19 10:32:00,42.0,36.0,29.98,ESE,121,0.0,1.0,78,0.00,,,0.21,,2013-03-19 14:32:00,
2013-03-19 10:42:00,42.0,36.0,29.98,ESE,121,0.0,1.0,78,0.00,,,0.21,,2013-03-19 14:42:00,
2013-03-19 10:52:00,43.0,36.0,29.98,SSE,156,0.0,0.0,75,0.00,,,0.21,,2013-03-19 14:52:00,
2013-03-19 11:02:00,45.0,34.0,29.98,ENE,78,0.0,0.0,65,0.00,,,0.21,,2013-03-19 15:02:00,
2013-03-19 11:12:00,45.0,34.0,29.98,ENE,78,0.0,0.0,65,0.00,,,0.21,,2013-03-19 15:12:00,
2013-03-19 11:22:00,45.0,30.0,29.99,SW,226,0.0,5.0,56,0.00,,,0.21,,2013-03-19 15:22:00,
2013-03-19 11:34:00,46.0,29.0,30.00,WSW,254,0.0,3.0,51,0.00,,,0.21,,2013-03-19 15:34:00,
2013-03-19 11:44:00,46.0,29.0,30.00,WSW,254,0.0,3.0,51,0.00,,,0.21,,2013-03-19 15:44:00,
2013-03-19 11:53:00,46.0,29.0,30.01,WSW,244,2.0,3.0,52,0.01,,,0.22,,2013-03-19 15:53:00,
2013-03-19 12:04:00,48.0,31.0,30.00,East,93,0.0,3.0,51,0.01,,,0.22,,2013-03-19 16:04:00,
2013-03-19 12:13:00,48.0,31.0,30.00,East,93,0.0,3.0,51,0.01,,,0.22,,2013-03-19 16:13:00,
2013-03-19 12:24:00,48.0,31.0,30.01,WSW,257,1.0,4.0,52,0.01,,,0.22,,2013-03-19 16:24:00,
2013-03-19 12:34:00,50.0,29.0,30.01,West,269,2.0,5.0,44,0.01,,,0.22,,2013-03-19 16:34:00,
2013-03-19 12:44:00,50.0,29.0,30.01,West,269,2.0,5.0,44,0.01,,,0.22,,2013-03-19 16:44:00,
2013-03-19 12:54:00,49.0,27.0,30.00,West,261,8.0,8.0,42,0.00,,,0.22,,2013-03-19 16:54:00,
2013-03-19 13:03:00,50.0,29.0,30.01,SSW,200,3.0,6.0,44,0.00,,,0.22,,2013-03-19 17:03:00,
2013-03-19 13:13:00,51.0,27.0,30.01,SSE,148,3.0,3.0,39,0.00,,,0.22,,2013-03-19 17:13:00,
2013-03-19 13:23:00,51.0,27.0,30.01,SSE,148,3.0,3.0,39,0.00,,,0.22,,2013-03-19 17:23:00,
2013-03-19 13:34:00,52.0,28.0,30.01,SE,138,0.0,3.0,40,0.00,,,0.20,,2013-03-19 17:34:00,
2013-03-19 13:44:00,52.0,28.0,30.01,SE,138,0.0,3.0,40,0.00,,,0.20,,2013-03-19 17:44:00,
2013-03-19 13:53:00,51.0,26.0,30.01,South,175,0.0,1.0,37,0.00,,,0.20,,2013-03-19 17:53:00,
2013-03-19 14:03:00,53.0,24.0,30.01,East,97,0.0,4.0,32,0.00,,,0.20,,2013-03-19 18:03:00,
2013-03-19 14:13:00,53.0,24.0,30.01,East,97,0.0,4.0,32,0.00,,,0.20,,2013-03-19 18:13:00,
2013-03-19 14:23:00,54.0,29.0,30.01,WSW,254,2.0,2.0,38,0.00,,,0.20,,2013-03-19 18:23:00,
2013-03-19 14:34:00,54.0,26.0,30.01,East,87,2.0,3.0,33,0.00,,,0.20,,2013-03-19 18:34:00,
2013-03-19 14:43:00,54.0,26.0,30.01,East,87,2.0,3.0,33,0.00,,,0.20,,2013-03-19 18:43:00,
2013-03-19 14:53:00,54.0,27.0,30.00,East,89,0.0,3.0,35,0.00,,,0.20,,2013-03-19 18:53:00,
2013-03-19 15:03:00,53.0,24.0,30.00,SW,215,3.0,5.0,32,0.00,,,0.20,,2013-03-19 19:03:00,
2013-03-19 15:12:00,53.0,24.0,30.00,SW,215,3.0,5.0,32,0.00,,,0.20,,2013-03-19 19:12:00,
2013-03-19 15:22:00,54.0,30.0,30.00,South,186,3.0,4.0,39,0.00,,,0.20,,2013-03-19 19:22:00,
2013-03-19 15:33:00,54.0,24.0,30.00,WNW,287,5.0,11.0,31,0.00,,,0.20,,2013-03-19 19:33:00,
2013-03-19 15:43:00,54.0,24.0,30.00,WNW,287,5.0,11.0,31,0.00,,,0.20,,2013-03-19 19:43:00,
2013-03-19 15:52:00,53.0,26.0,30.01,NNW,343,4.0,5.0,35,0.00,,,0.15,,2013-03-19 19:52:00,
2013-03-19 16:03:00,53.0,25.0,30.01,East,94,3.0,3.0,34,0.00,,,0.15,,2013-03-19 20:03:00,
2013-03-19 16:12:00,54.0,27.0,30.01,East,79,0.0,6.0,35,0.00,,,0.14,,2013-03-19 20:12:00,
2013-03-19 16:22:00,54.0,27.0,30.01,East,79,0.0,6.0,35,0.00,,,0.14,,2013-03-19 20:22:00,
2013-03-19 16:33:00,54.0,29.0,30.01,NE,40,4.0,6.0,38,0.00,,,0.14,,2013-03-19 20:33:00,
2013-03-19 16:43:00,54.0,29.0,30.01,NE,40,4.0,6.0,38,0.00,,,0.14,,2013-03-19 20:43:00,
2013-03-19 16:52:00,53.0,26.0,30.02,SSW,212,12.0,12.0,35,0.00,,,0.14,,2013-03-19 20:52:00,
2013-03-19 17:02:00,54.0,28.0,30.02,SW,233,0.0,1.0,36,0.00,,,0.12,,2013-03-19 21:02:00,
2013-03-19 17:12:00,54.0,26.0,30.02,SE,137,0.0,2.0,34,0.00,,,0.10,,2013-03-19 21:12:00,
2013-03-19 17:23:00,54.0,26.0,30.02,SE,137,0.0,2.0,34,0.00,,,0.10,,2013-03-19 21:23:00,
2013-03-19 17:34:00,53.0,25.0,30.02,South,190,0.0,1.0,34,0.00,,,0.08,,2013-03-19 21:34:00,
2013-03-19 17:43:00,53.0,25.0,30.02,South,190,0.0,1.0,34,0.00,,,0.08,,2013-03-19 21:43:00,
2013-03-19 17:53:00,52.0,25.0,30.03,South,173,0.0,3.0,35,0.00,,,0.07,,2013-03-19 21:53:00,
2013-03-19 18:03:00,51.0,24.0,30.02,SSW,198,16.0,16.0,35,0.00,,,0.05,,2013-03-19 22:03:00,
2013-03-19 18:13:00,51.0,24.0,30.02,SSW,198,16.0,16.0,35,0.00,,,0.05,,2013-03-19 22:13:00,
2013-03-19 18:23:00,51.0,25.0,30.03,ESE,113,1.0,2.0,36,0.00,,,0.02,,2013-03-19 22:23:00,
2013-03-19 18:33:00,50.0,23.0,30.01,SE,130,2.0,6.0,35,0.00,,,0.01,,2013-03-19 22:33:00,
2013-03-19 18:43:00,50.0,22.0,30.01,East,100,0.0,2.0,33,0.00,,,0.01,,2013-03-19 22:43:00,
2013-03-19 18:53:00,50.0,22.0,30.01,East,100,0.0,2.0,33,0.00,,,0.01,,2013-03-19 22:53:00,
2013-03-19 19:03:00,48.0,22.0,30.02,ESE,111,3.0,8.0,36,0.00,,,0.01,,2013-03-19 23:03:00,
2013-03-19 19:12:00,48.0,22.0,30.02,ESE,111,3.0,8.0,36,0.00,,,0.01,,2013-03-19 23:12:00,
2013-03-19 19:22:00,48.0,17.0,30.03,SE,130,0.0,4.0,29,0.00,,,0.01,,2013-03-19 23:22:00,
2013-03-19 19:33:00,47.0,19.0,30.04,NE,46,0.0,4.0,32,0.00,,,0.01,,2013-03-19 23:33:00,
2013-03-19 19:42:00,47.0,19.0,30.04,NE,46,0.0,4.0,32,0.00,,,0.01,,2013-03-19 23:42:00,
2013-03-19 19:52:00,47.0,19.0,30.04,NNE,26,4.0,4.0,33,0.00,,,0.01,,2013-03-19 23:52:00,
2013-03-19 20:03:00,45.0,20.0,30.04,NNE,26,4.0,4.0,36,0.00,,,0.01,,2013-03-20 00:03:00,
2013-03-19 20:13:00,45.0,20.0,30.04,NNE,26,4.0,4.0,36,0.00,,,0.01,,2013-03-20 00:13:00,
2013-03-19 20:22:00,45.0,18.0,30.04,NNE,26,4.0,4.0,33,0.00,,,0.01,,2013-03-20 00:22:00,
2013-03-19 20:33:00,45.0,17.0,30.05,NNE,26,4.0,4.0,32,0.00,,,0.01,,2013-03-20 00:33:00,
2013-03-19 20:42:00,45.0,17.0,30.05,NNE,26,4.0,4.0,32,0.00,,,0.01,,2013-03-20 00:42:00,
2013-03-19 20:52:00,44.0,16.0,30.06,NNE,26,4.0,4.0,32,0.00,,,0.01,,2013-03-20 00:52:00,
2013-03-19 21:03:00,43.0,15.0,30.06,NNE,26,4.0,4.0,32,0.00,,,0.01,,2013-03-20 01:03:00,
2013-03-19 21:12:00,43.0,15.0,30.06,NNE,26,4.0,4.0,32,0.00,,,0.01,,2013-03-20 01:12:00,
2013-03-19 21:22:00,43.0,15.0,30.06,NNE,26,4.0,4.0,32,0.00,,,0.01,,2013-03-20 01:22:00,
2013-03-19 21:32:00,42.0,17.0,30.06,NNE,26,4.0,4.0,36,0.00,,,0.01,,2013-03-20 01:32:00,
2013-03-19 21:42:00,42.0,17.0,30.06,NNE,26,4.0,4.0,36,0.00,,,0.01,,2013-03-20 01:42:00,
2013-03-19 21:52:00,42.0,14.0,30.06,NNE,26,4.0,4.0,31,0.00,,,0.01,,2013-03-20 01:52:00,
2013-03-19 22:02:00,41.0,13.0,30.06,NNE,26,4.0,4.0,31,0.00,,,0.01,,2013-03-20 02:02:00,
2013-03-19 22:12:00,41.0,13.0,30.06,NNE,26,4.0,4.0,31,0.00,,,0.01,,2013-03-20 02:12:00,
2013-03-19 22:22:00,42.0,13.0,30.06,NNE,26,4.0,4.0,30,0.00,,,0.01,,2013-03-20 02:22:00,
2013-03-19 22:32:00,41.0,15.0,30.06,NNE,26,4.0,4.0,34,0.00,,,0.01,,2013-03-20 02:32:00,
2013-03-19 22:42:00,41.0,15.0,30.06,NNE,26,4.0,4.0,34,0.00,,,0.01,,2013-03-20 02:42:00,
2013-03-19 22:52:00,40.0,14.0,30.06,NNE,26,4.0,4.0,34,0.00,,,0.01,,2013-03-20 02:52:00,
2013-03-19 23:02:00,40.0,14.0,30.07,NNE,26,4.0,4.0,34,0.00,,,0.01,,2013-03-20 03:02:00,
2013-03-19 23:12:00,40.0,13.0,30.07,NNE,26,4.0,4.0,33,0.00,,,0.01,,2013-03-20 03:12:00,
2013-03-19 23:22:00,40.0,13.0,30.07,NNE,26,4.0,4.0,33,0.00,,,0.01,,2013-03-20 03:22:00,
2013-03-19 23:34:00,39.0,14.0,30.07,NNE,26,4.0,4.0,35,0.00,,,0.01,,2013-03-20 03:34:00,
2013-03-19 23:43:00,39.0,14.0,30.07,NNE,26,4.0,4.0,35,0.00,,,0.01,,2013-03-20 03:43:00,
2013-03-19 23:53:00,39.0,13.0,30.07,NNE,26,4.0,4.0,34,0.00,,,0.01,,2013-03-20 03:53:00,